Das Wetter in  D-61279 Heinzenberg / Taunus





Wetter Minimum- & Maximum-Werte im Dezember 2007

Standort: Heinzenberg / Taunus - Höhe 297 m         8 24' 1" Ost 50 21' 51" Nord
(   3-stündige Aktualisierung    letzte Aktualisierung um 19:04 am 31.12.2007  )


Messgrösse

Minimum

Maximum

Durchschnitt

Temperatur West /
Luftfeuchte West
Anklicken für Monats-Diagramm

-10,1 C

09:12
22.12.2007

65 %

13:38
07.12.2007

12,3 C

07:58
07.12.2007

95 %

09:17
01.12.2007

Temp

1,2 C

Feuchte

87 %

Temperatur Ost /
Luftfeuchte Ost
Anklicken für Monats-Diagramm

-10,4 C

09:17
22.12.2007

--

--
--

12,0 C

07:33
07.12.2007

--

--
--

1,1 C

--

Luftdruck Anklicken für Monats-Diagramm

987,1 hPa

01:04
03.12.2007

1042,0 hPa

08:44
19.12.2007

1023,7 hPa

Taupunkt

-11,6 C

09:12
22.12.2007

10,1 C

08:08
07.12.2007

-0,8 C

Windchill
( gefühlte Temperatur )

-12,6 C

12:49
25.12.2007

8,7 C

18:01
05.12.2007

-1,7 C

Windgeschwindigkeit /
Windrichtung
Anklicken für Monats-Diagramm

---

61,8 km/h / W-SW

10:58
07.12.2007

8,5 km/h
W-SW

Helligkeit /
Sonnenschein
Anklicken für Monats-Diagramm
Anklicken für Monats-Diagramm

Sonnenschein:

45:20 Stunden

Max: 6:55 Std am
19.12.2007

42,00 klux

12:05
20.12.2007

7,8 klux

Solarstrahlung Anklicken für Monats-Diagramm

---

287 W/m

12:05
20.12.2007

61 W/m

Regenmenge
    Dezember 2007
Anklicken für Monats-Diagramm

Insgesamt 12,3 l/m

in 78:39 Stunden
an 18 Tagen

2,7 l/m

12:21
10.12.2007

Gesamtmenge

12,3 l/m

Regen-Tage
    Dezember 2007
Anklicken für Monats-Diagramm

>   0 mm/Tag

>   2 mm/Tag

>   5 mm/Tag

> 10 mm/Tag

> 20 mm/Tag

18 Tage     
  1 Tag     
0 Tage     
0 Tage     
0 Tage     

Eisige Tage Dezember 2007 / 2006

Tmin ≤ -10C     

  1 Tag

/

0 Tage

Eistage Dezember 2007 / 2006

Tmax <     0C     

5 Tage

/

  1 Tag

Frosttage Dezember 2007 / 2006

Tmin ≤     0C     

17 Tage

/

13 Tage

Kalte Tage Dezember 2007 / 2006

Tmax <   10C     

30 Tage

/

25 Tage

Warme Tage Dezember 2007 / 2006

Tmax ≥   20C     

0 Tage

/

0 Tage

Sommertage Dezember 2007 / 2006

Tmax ≥   25C     

0 Tage

/

0 Tage

Heisse Tage Dezember 2007 / 2006

Tmax ≥   30C     

0 Tage

/

0 Tage


Monatsdiagramm Dezember 2007

Die Kurven zeigen den Durchschnittswert des jeweiligen Tages an


Wetter-Monatsübersicht Dezember 2007
Datum
  Temperatur
   Luftdruck
   Wind
  Regen
   Luftfeuchte
   Helligkeit

Sonnen-
schein


Temp.

Min.
Temp.

Max.
Temp.


Luftdruck

Min.
Luftdruck

Max.
Luftdruck

-Geschw.
Haupt-Richtg.

Max.
Wind

Menge /
Dauer


Feuchte

Min.
Feuchte

Max.
Feuchte


Helligkeit

Max.
Helligkeit

1.
Dezember
6,4 C5,2 C
05:17
8,3 C
13:02
1008,4 hPa1005,9 hPa
08:52
1010,1 hPa
22:43
19,8 km/h
W-SW
35,1 km/h
23:53  
1,7 l/m
7:55 Stunden
88 %80 %
15:07
95 %
09:17
7,01 klux19,40 klux
12:57
15 Min 
2.
Dezember
7,3 C5,7 C
00:48
8,9 C
18:03
1002,1 hPa988,1 hPa
23:59
1010,1 hPa
00:08
30,1 km/h
W-SW
58,4 km/h
20:53  
1,8 l/m
4:25 Stunden
86 %80 %
00:18
92 %
21:13
5,2 klux15,9 klux
10:58
--- 
3.
Dezember
5,5 C4,0 C
22:14
8,1 C
00:19
996,2 hPa987,1 hPa
01:04
1004,1 hPa
20:29
27,2 km/h
W
44,4 km/h
15:24  
1,1 l/m
5:40 Stunden
83 %68 %
17:49
94 %
10:14
7,4 klux35,7 klux
12:54
55 Min 
4.
Dezember
4,0 C2,5 C
05:35
5,3 C
19:25
1015,4 hPa1003,1 hPa
00:00
1022,8 hPa
22:20
13,8 km/h
W
29,1 km/h
03:30  
0,6 l/m
4:25 Stunden
90 %80 %
00:00
94 %
06:20
4,4 klux14,1 klux
12:40
--- 
5.
Dezember
7,9 C4,8 C
00:01
9,2 C
18:46
1018,2 hPa1013,9 hPa
20:36
1021,7 hPa
00:01
17,6 km/h
W-SW
43,9 km/h
20:21  
0,2 l/m
3:49 Stunden
90 %85 %
18:26
95 %
06:06
3,3 klux9,0 klux
13:41
--- 
6.
Dezember
8,1 C7,0 C
06:17
9,5 C
23:58
1014,4 hPa1005,5 hPa
23:58
1019,2 hPa
10:27
22,4 km/h
W-SW
40,4 km/h
15:57  
1,2 l/m
8:10 Stunden
88 %80 %
02:52
95 %
22:17
6,21 klux25,60 klux
10:02
10 Min 
7.
Dezember
8,8 C4,1 C
23:38
12,3 C
07:58
1000,3 hPa996,0 hPa
10:08
1005,5 hPa
00:03
30,4 km/h
W-SW
61,8 km/h
10:58  
0,5 l/m
5:10 Stunden
81 %65 %
13:38
95 %
01:48
6,3 klux37,9 klux
13:13
20 Min 
8.
Dezember
4,6 C3,1 C
21:13
6,0 C
12:43
1007,1 hPa996,9 hPa
23:50
1012,3 hPa
10:54
20,1 km/h
W
36,8 km/h
22:25  
0,2 l/m
1:49 Stunden
79 %70 %
14:18
87 %
22:55
5,1 klux16,6 klux
12:28
--- 
9.
Dezember
5,8 C3,8 C
00:00
8,2 C
13:55
992,7 hPa991,5 hPa
09:00
995,9 hPa
00:00
19,1 km/h
W-SW
39,3 km/h
14:10  
0,3 l/m
4:00 Stunden
85 %75 %
14:05
93 %
08:15
8,0 klux32,8 klux
11:05
1:05 Std 
10.
Dezember
4,8 C3,9 C
22:06
5,6 C
07:21
998,9 hPa990,5 hPa
01:51
1011,4 hPa
23:36
12,8 km/h
W-SW
33,4 km/h
12:11  
2,7 l/m
13:40 Stunden
92 %87 %
00:01
95 %
19:16
2,7 klux7,4 klux
13:01
--- 
11.
Dezember
3,9 C3,6 C
04:21
4,6 C
09:27
1020,7 hPa1011,4 hPa
00:31
1029,0 hPa
22:57
7,9 km/h
NW
21,0 km/h
16:12  
0,5 l/m
2:35 Stunden
91 %87 %
14:37
95 %
00:01
4,09 klux11,00 klux
13:42
--- 
12.
Dezember
3,8 C3,1 C
07:23
4,7 C
11:53
1034,8 hPa1029,0 hPa
00:02
1039,4 hPa
23:34
1,5 km/h
N-NO
18,5 km/h
12:53  
---
35 Minuten
86 %80 %
12:53
91 %
03:02
5,5 klux30,1 klux
10:23
30 Min 
13.
Dezember
3,4 C1,5 C
23:55
5,3 C
12:19
1040,7 hPa1039,4 hPa
00:04
1041,7 hPa
22:50
0,8 km/h
O-SO
10,8 km/h
12:39  
---
55 Minuten
84 %76 %
22:50
92 %
08:09
6,2 klux28,4 klux
12:04
15 Min 
14.
Dezember
0,2 C-0,2 C
08:30
1,5 C
00:00
1039,3 hPa1036,8 hPa
19:55
1040,9 hPa
04:15
0,8 km/h
O
13,8 km/h
08:15  
---
77 %74 %
13:25
80 %
22:41
2,4 klux4,7 klux
10:55
--- 
15.
Dezember
-1,6 C-4,9 C
23:57
0,8 C
11:46
1037,5 hPa1036,7 hPa
11:56
1038,5 hPa
23:57
0,8 km/h
O-SO
16,2 km/h
00:11  
---
79 %73 %
00:16
84 %
07:16
3,32 klux8,49 klux
12:06
--- 
16.
Dezember
-3,4 C-6,0 C
07:12
2,2 C
14:32
1038,5 hPa1036,5 hPa
14:32
1039,7 hPa
07:12
0,5 km/h
NO
11,0 km/h
13:57  
---
85 %74 %
15:07
90 %
09:27
15,40 klux33,60 klux
11:27
5:10 Std 
17.
Dezember
-2,1 C-4,5 C
00:03
2,5 C
15:13
1036,8 hPa1034,4 hPa
15:13
1038,5 hPa
00:03
2,3 km/h
O-SO
19,0 km/h
12:38  
---
80 %67 %
15:23
87 %
00:03
9,7 klux37,0 klux
13:08
3:05 Std 
18.
Dezember
-3,0 C-6,8 C
04:34
3,8 C
14:09
1037,6 hPa1036,3 hPa
14:09
1039,5 hPa
23:54
0,3 km/h
SO
6,3 km/h
03:34  
---
84 %70 %
15:44
91 %
11:19
16,6 klux35,2 klux
13:44
5:25 Std 
19.
Dezember
-3,4 C-7,4 C
07:54
5,7 C
14:39
1040,4 hPa1039,2 hPa
14:39
1042,0 hPa
08:44
1,1 km/h
SO
7,4 km/h
03:09  
---
85 %69 %
14:54
90 %
10:44
19,4 klux36,9 klux
12:09
6:55 Std 
20.
Dezember
-4,4 C-8,2 C
09:10
3,3 C
14:50
1037,7 hPa1034,5 hPa
22:15
1040,8 hPa
02:35
0,4 km/h
SO
9,3 km/h
21:20  
---
87 %74 %
14:55
91 %
11:05
21,0 klux42,0 klux
12:05
6:55 Std 
21.
Dezember
-4,8 C-8,3 C
07:36
3,0 C
14:56
1031,7 hPa1029,2 hPa
14:56
1034,7 hPa
01:16
0,2 km/h
SO
4,9 km/h
22:21  
---
87 %77 %
15:01
91 %
11:06
18,5 klux37,4 klux
12:31
6:55 Std 
22.
Dezember
-6,9 C-10,1 C
09:12
-2,6 C
14:32
1029,9 hPa1028,7 hPa
05:22
1031,0 hPa
09:17
0,3 km/h
SO
7,2 km/h
18:22  
---
88 %84 %
14:47
91 %
12:02
13,2 klux26,4 klux
12:27
4:45 Std 
23.
Dezember
-5,3 C-8,1 C
09:17
-1,9 C
14:22
1031,4 hPa1030,5 hPa
00:22
1032,8 hPa
09:17
0,2 km/h
SO
5,0 km/h
06:22  
---
90 %88 %
12:52
92 %
22:12
7,4 klux30,4 klux
12:17
1:25 Std 
24.
Dezember
-3,4 C-4,0 C
10:38
-2,6 C
14:38
1031,3 hPa1031,0 hPa
14:38
1032,2 hPa
10:38
0,6 km/h
O-SO
8,0 km/h
02:48  
---
93 %92 %
00:03
94 %
09:48
4,3 klux9,4 klux
12:03
--- 
25.
Dezember
-4,1 C-5,8 C
22:50
-2,3 C
13:29
1026,7 hPa1023,1 hPa
20:54
1031,1 hPa
00:14
3,0 km/h
O-SO
18,6 km/h
12:49  
---
92 %90 %
13:34
93 %
00:04
6,2 klux16,4 klux
13:19
--- 
26.
Dezember
-3,3 C-6,6 C
03:45
-0,6 C
15:35
1028,5 hPa1023,1 hPa
01:40
1034,9 hPa
23:11
0,2 km/h
SO
7,3 km/h
18:05  
0,2 l/m
35 Minuten
92 %91 %
00:00
94 %
19:30
3,3 klux10,7 klux
11:50
--- 
27.
Dezember
0,8 C-1,1 C
00:01
2,2 C
13:51
1034,7 hPa1033,4 hPa
13:51
1035,7 hPa
09:46
2,8 km/h
W-SW
16,0 km/h
12:01  
---
92 %90 %
13:51
94 %
02:11
5,1 klux13,3 klux
11:36
--- 
28.
Dezember
1,5 C-3,0 C
23:48
5,1 C
14:57
1031,0 hPa1025,8 hPa
23:53
1034,5 hPa
00:42
1,8 km/h
W-SW
19,6 km/h
13:27  
---
10 Minuten
91 %85 %
15:17
93 %
09:32
6,1 klux16,0 klux
14:27
15 Min 
29.
Dezember
0,5 C-4,0 C
01:43
3,2 C
15:33
1021,0 hPa1018,8 hPa
15:33
1025,9 hPa
00:38
10,4 km/h
W-SW
30,8 km/h
12:08  
0,5 l/m
4:56 Stunden
92 %90 %
15:33
94 %
02:53
4,9 klux15,7 klux
12:43
--- 
30.
Dezember
3,0 C1,9 C
02:39
4,2 C
13:29
1022,6 hPa1018,8 hPa
05:34
1028,2 hPa
23:44
13,8 km/h
W
30,7 km/h
14:09  
0,8 l/m
7:20 Stunden
93 %91 %
06:14
95 %
15:59
4,0 klux11,5 klux
11:04
--- 
31.
Dezember
1,1 C-0,7 C
23:05
3,1 C
14:14
1029,6 hPa1028,2 hPa
00:09
1030,6 hPa
08:44
1,0 km/h
W
9,8 km/h
03:09  
0,3 l/m
2:30 Stunden
94 %92 %
00:19
95 %
09:54
8,0 klux32,4 klux
10:59
1:00 Std 



Dezember
2007

Temperatur

  

Luftdruck

  

Wind

  

Regen

  

Luftfeuchte

  

Helligkeit

Sonnen-
schein

Min

Max

Min

Max

Max

Max

Min

Max

Max

Max

1,2 C

-10,1 C

09:12 Uhr
22.12.2007

12,3 C

07:58 Uhr
07.12.2007

1023,7 hPa

987,1 hPa

01:04 Uhr
03.12.2007

1042,0 hPa

08:44 Uhr
19.12.2007

8,5 km/h

W-SW

61,8 km/h

10:58 Uhr
07.12.2007

2,7 l/m

13:40 Stunden
10.12.2007

87 %

65 %

13:38 Uhr
07.12.2007

95 %

09:17 Uhr
01.12.2007

7,8 klux

42,00 klux

12:05 Uhr
20.12.2007

6:55 Std

am
19.12.2007

Gesamt

Gesamt

12,3 l/m

18 Tage
78:39 h

45:20 Std


Wetter-Diagramme Dezember 2007     Heinzenberg / Taunus   
TemperaturLuftfeuchte
SolarstrahlungLuftdruck
HelligkeitSonnenschein
RegenmengeRegendauer
Wind-GeschwindigkeitWind-Richtung